Regional Weather Roundup
Issued by NWS

Home | Current Version | Previous Version | Text Only | Print | Product List | Glossary Off
Versions: 1 2 3 4 5 6 7 8 9 10 11 12 13 14 15 16 17 18 19 20 21 22 23 24 25 26 27 28 29 30 31 32 33 34 35 36 37 38 39 40 41 42 43 44 45 46 47 48 49 50

000
ASUS43 KIND 232109
RWRIN

WEATHER ROUNDUP FOR INDIANA
NATIONAL WEATHER SERVICE INDIANAPOLIS IN
400 PM EST FRI FEB 23 2018

NOTE: "FAIR" INDICATES FEW OR NO CLOUDS BELOW 12,000 FEET WITH NO
SIGNIFICANT WEATHER AND/OR OBSTRUCTIONS TO VISIBILITY.

* - STATION DOES NOT REPORT WEATHER SUCH AS PRECIPITATION OR FOG.

+ - STATION NOT QUALITY CONTROLLED BY THE NATIONAL WEATHER SERVICE.
    USE DATA WITH CAUTION...ESPECIALLY DEWPOINT AND RELATIVE
    HUMIDITY OBSERVATIONS.

INZ001>003-010>013-019-020-232200-
NORTHWEST INDIANA

CITY           SKY/WX    TMP DP  RH WIND       PRES   REMARKS
GARY /AIRPORT/ CLOUDY    43  37  81 W15G28    30.20S
LA PORTE +     CLOUDY    42  39  89 W10       30.19S
MICHIGAN CITY+ CLOUDY    41  37  87 W7        30.20S
MONTICELLO +   CLOUDY    45  43  93 W10G17    30.21S
RENSSELAER +   CLOUDY    41  37  87 W8        30.22R
VALPARAISO     CLOUDY    43  39  86 W15       30.21R

$$

LMZ046-743>745-232200-
SOUTHERN LAKE MICHIGAN

STATION/POSITION TIME  TEMP    WIND        PRES    WAVE
                       AIR SEA DIR/SP/G            HT
                 (UTC) (F)     (DEG/KT/KT) (MB)    (FT)
BURNS HARBOR     2040   38     270/ 12/ 13 1022.7S
MICHIGAN CITY    2040   37     250/ 16/ 17   N/A

$$

INZ004-005-014>016-021>024-232200-
NORTH CENTRAL INDIANA

CITY           SKY/WX    TMP DP  RH WIND       PRES   REMARKS
ELKHART        CLOUDY    45  41  87 NW7       30.18R
GOSHEN         CLOUDY    46  42  86 W18       30.17S
LOGANSPORT +   CLOUDY    45  43  93 W10       30.21S
ROCHESTER +    CLOUDY    46  45  93 W7        30.20S
SOUTH BEND     CLOUDY    43  40  89 NW8       30.18R
WARSAW +       CLOUDY    45  43  93 N9        30.19S

$$

INZ006>009-017-018-025>027-232200-
NORTHEAST INDIANA

CITY           SKY/WX    TMP DP  RH WIND       PRES   REMARKS
AUBURN +       CLOUDY    46  45  93 W12       30.18R
FORT WAYNE     CLOUDY    50  47  89 W18       30.18S
HUNTINGTON +   CLOUDY    48  46  91 W12G18    30.19R
KENDALLVILLE + CLOUDY    46  46 100 W16       30.17R

$$

INZ028-029-035-036-043>045-051>053-232200-
WEST CENTRAL INDIANA

CITY           SKY/WX    TMP DP  RH WIND       PRES   REMARKS
CRAWFORDSVL +  CLOUDY    46  46 100 W9        30.19S
GREENCASTLE +  CLOUDY    50  45  81 W3        30.22S
LAFAYETTE      CLOUDY    46  43  89 W13       30.22S
TERRE HAUTE    CLOUDY    51  46  83 NW5       30.23S

$$

INZ030>032-037>040-046>048-054>057-064-065-232200-
CENTRAL INDIANA

CITY           SKY/WX    TMP DP  RH WIND       PRES   REMARKS
ANDERSON       PTSUNNY   55  48  76 W12       30.20
COLUMBUS       PTSUNNY   57 N/A N/A SW6       30.22S
GREENWOOD *+   CLOUDY    53 -39   2 W8        30.23S
INDIANAPOLIS   CLOUDY    54  48  80 W14       30.22R
-EAGLE CREEK   CLOUDY    53  47  79 NW12      30.21R
KOKOMO +       CLOUDY    48  45  89 W14       30.21S
MARION +       CLOUDY    48  48  99 W15       30.21S
MT COMFORT *+  PTSUNNY   54  52  94 W13       30.21R
SHELBYVILLE    PTSUNNY   56  50  80 W9        30.21R
ZIONSVILLE +   CLOUDY    48  46  91 W8        30.21S

$$

INZ033-034-041-042-049-050-058-059-232200-
EAST CENTRAL INDIANA

CITY           SKY/WX    TMP DP  RH WIND       PRES   REMARKS
MUNCIE         CLOUDY    55  49  80 W14       30.20R
RICHMOND +     PTSUNNY   55  54  94 W16       30.20S

$$

INZ060-061-067>069-081>083-085>088-232200-
SOUTHWEST INDIANA

CITY           SKY/WX    TMP DP  RH WIND       PRES   REMARKS
EVANSVILLE     PTSUNNY   54  50  86 CALM      30.24F
HUNTINGBURG +  CLOUDY    55  51  86 NW8       30.25F
WASHINGTON +   PTSUNNY   52  49  87 SW5       30.24S

$$

INZ062-063-066-070>080-084-089>092-232200-
SOUTH CENTRAL AND SOUTHEAST INDIANA

CITY           SKY/WX    TMP DP  RH WIND       PRES   REMARKS
BATESVILLE +   CLOUDY    57  57 100 MISG      30.22R
BEDFORD +      PTSUNNY   55  50  82 W7        30.23R
BLOOMINGTON    PTSUNNY   54  49  83 SW7       30.21S
FRENCH LICK *+ CLOUDY    54  54 100 W6        30.23F
MADISON *+     CLOUDY    55  54  94 W7        30.25S
NORTH VERNON + DRIZZLE   55  52  88 SW6       30.23S
SEYMOUR +      CLOUDY    57  54  88 SW6       30.23R

$$





USA.gov is the U.S. government's official web portal to all federal, state and local government web resources and services.